Lapse_Rate
6.7 7.0 7.1 7.0 7.4 7.3 7.4 7.8 7.3 7.6 6.8 6.6 6.9 7.0 6.7 6.3 5.9 6.3 6.4 6.2 5.8 5.6 5.7 5.8 5.7 5.9 6.1 6.0 5.5 5.3 5.2 5.3 5.4 5.5 5.4 5.4 5.3 5.4 5.4 5.5 5.6 5.7 5.9 6.0 5.7 5.7 5.6 5.4 5.4
6.6 6.6 7.3 7.1 7.4 7.0 7.4 8.0 6.9 7.0 6.9 6.9 6.7 6.8 6.9 6.6 6.0 6.1 6.5 6.2 5.7 5.6 5.7 5.8 5.5 5.8 6.0 6.0 5.5 5.4 5.2 5.4 5.5 5.5 5.4 5.4 5.4 5.4 5.5 5.6 5.7 5.8 6.1 6.1 6.0 6.0 5.9 5.7 5.6
6.7 6.5 6.5 6.8 7.2 6.3 6.7 6.8 6.8 6.9 6.3 6.8 6.8 6.7 7.1 6.2 6.2 6.0 6.1 6.1 5.8 5.6 5.6 5.6 5.5 5.6 5.7 5.7 5.5 5.5 5.4 5.5 5.6 5.6 5.5 5.5 5.5 5.5 5.6 5.8 5.9 6.0 6.1 6.3 6.1 6.0 5.8 5.8 5.6
6.9 6.6 6.7 6.8 7.1 6.8 7.4 7.3 7.4 7.3 7.0 7.0 6.0 6.3 6.4 6.1 5.8 5.9 6.0 5.9 5.7 5.6 5.6 5.6 5.5 5.6 5.7 5.7 5.5 5.4 5.5 5.6 5.8 5.9 5.7 5.5 5.6 5.6 5.7 5.9 6.0 6.1 6.0 6.1 6.1 5.8 5.7 5.5 5.4
6.6 6.7 7.2 6.7 6.9 6.8 6.4 7.0 8.0 7.2 7.1 6.8 6.4 6.7 6.2 6.2 6.0 5.9 5.9 5.6 5.6 5.5 5.6 5.4 5.3 5.6 5.6 5.7 5.4 5.4 5.5 5.5 5.8 5.9 5.7 5.7 5.6 5.6 5.7 5.8 5.9 5.9 5.9 5.8 5.7 5.6 5.6 5.4 5.2
7.0 7.0 7.2 6.9 6.9 7.1 6.8 6.6 7.0 7.3 7.3 6.7 6.3 6.3 5.9 5.3 6.0 6.0 5.5 5.4 5.2 5.4 5.4 5.2 5.2 5.5 5.6 5.5 5.4 5.4 5.6 5.4 5.8 5.9 5.7 5.9 5.7 5.7 5.6 5.7 5.7 5.8 5.8 5.7 5.6 5.6 5.6 5.7 5.7
7.0 7.1 7.2 7.6 7.2 7.1 7.7 6.9 6.7 7.2 6.6 6.3 6.3 6.4 5.7 6.0 6.1 6.4 5.3 5.0 4.9 5.2 5.1 5.0 5.0 5.2 5.4 5.4 5.5 5.4 5.5 5.4 5.9 6.0 5.7 5.8 5.7 5.5 5.5 5.6 5.6 5.6 5.6 5.4 5.5 5.5 5.7 5.6 5.7
7.2 6.6 7.3 7.7 8.0 6.5 6.2 7.5 7.2 7.0 6.7 7.0 6.2 5.9 5.8 6.0 5.9 5.9 5.6 5.1 5.2 5.2 4.7 4.4 4.7 5.3 5.5 5.4 5.3 5.2 5.3 5.3 5.9 6.0 5.9 5.8 5.7 5.5 5.4 5.5 5.4 5.4 5.4 5.3 5.2 5.4 5.6 5.4 5.5
6.8 8.2 8.0 7.8 7.9 7.6 6.3 7.7 8.2 7.4 6.9 6.8 6.4 6.3 5.8 5.6 5.3 5.3 5.6 5.3 5.5 5.5 5.0 4.9 5.0 5.5 5.6 5.5 5.4 5.1 5.2 5.3 5.8 6.0 5.9 5.8 5.7 5.5 5.5 5.3 5.2 5.4 5.6 5.5 5.1 4.9 5.2 5.2 5.2
7.5 8.7 8.4 8.1 8.1 7.5 7.3 7.2 8.0 7.7 7.4 6.9 6.6 6.3 6.0 5.5 5.4 5.4 5.4 5.4 5.5 5.7 5.8 5.7 5.5 5.4 5.6 5.6 5.4 5.2 5.1 5.3 5.6 5.9 5.8 5.7 5.7 5.5 5.5 5.2 5.1 5.5 5.0 5.1 5.0 5.4 5.3 5.5 5.3
7.6 8.4 8.6 8.7 8.8 8.4 8.4 7.4 8.0 8.0 8.5 7.1 6.8 6.3 6.0 5.4 5.6 5.5 5.4 5.4 5.7 5.8 5.7 5.9 5.8 5.7 5.6 5.5 5.4 5.3 5.2 5.4 5.5 5.8 5.7 5.7 5.9 5.6 5.6 5.3 5.2 5.3 5.3 5.2 5.4 5.5 5.5 5.5 5.6
8.7 8.1 8.5 8.8 8.3 8.0 7.9 8.0 8.1 7.9 8.1 7.4 6.8 6.7 5.9 5.8 6.1 5.6 5.7 5.8 5.6 5.6 5.8 5.7 5.8 5.7 5.8 5.7 5.7 5.4 5.4 5.5 5.6 5.7 5.8 5.6 5.5 5.7 5.8 5.5 5.4 5.5 5.5 5.5 5.2 5.3 5.5 5.5 5.5
8.0 8.1 8.4 8.7 8.1 8.3 8.3 8.3 8.3 7.9 8.0 7.1 6.9 6.9 6.6 6.2 6.0 5.7 5.7 5.9 6.0 6.2 5.8 5.8 6.0 5.9 5.8 5.7 5.8 5.7 5.5 5.6 5.6 5.8 5.9 5.6 5.7 5.9 6.1 5.8 5.4 5.2 5.4 5.2 5.6 5.5 5.1 5.7 5.5
7.6 7.9 8.5 8.4 8.3 8.4 8.4 8.3 8.2 7.7 7.6 7.1 7.1 6.4 6.1 6.1 6.3 6.2 6.2 6.0 6.1 6.4 6.2 6.1 6.2 6.1 5.9 5.8 5.9 5.8 5.6 5.5 5.6 5.8 6.1 6.2 6.1 5.9 6.0 5.6 5.3 5.2 5.7 5.5 5.5 5.3 5.3 5.5 5.7
7.8 8.4 8.6 8.2 8.3 8.6 8.6 8.4 8.0 7.5 7.4 6.7 7.1 7.0 6.3 5.8 5.9 6.7 6.3 6.1 6.0 6.2 6.0 6.2 6.4 6.3 6.0 6.0 6.0 5.9 5.8 5.9 5.6 5.9 6.2 6.3 6.1 6.0 5.7 6.0 5.7 5.5 5.7 5.3 5.4 5.5 5.3 5.4 5.9
8.0 8.1 8.5 8.6 8.4 8.8 8.5 9.0 7.9 7.5 7.3 7.0 8.0 8.2 7.3 7.1 6.0 6.4 6.8 6.2 5.9 6.1 6.3 5.9 6.2 6.3 6.2 6.1 5.9 5.9 5.8 5.8 5.7 5.8 6.1 6.3 6.2 5.9 5.5 5.7 6.0 5.6 5.6 5.8 5.7 5.6 5.6 5.4 5.9
8.2 8.1 8.9 8.5 8.6 8.8 8.1 8.5 9.0 7.7 7.0 7.4 8.1 8.1 8.1 7.9 6.6 6.9 7.0 6.6 6.0 6.2 6.4 6.1 6.0 6.4 6.2 6.2 5.8 5.9 5.7 5.8 5.7 5.8 5.9 6.4 6.1 6.0 6.0 5.9 5.7 5.6 6.0 5.8 5.5 5.9 5.7 5.5 5.7
7.9 8.1 9.2 9.4 9.3 8.9 8.3 8.6 9.0 8.2 7.4 7.3 7.9 8.0 8.5 8.8 7.4 7.1 7.2 6.8 6.3 6.5 6.5 6.4 6.0 6.1 6.2 6.0 5.8 6.1 5.8 5.8 5.8 5.7 5.6 5.9 6.0 6.1 6.2 5.6 5.9 5.8 5.6 5.9 5.7 5.7 5.8 6.1 6.0
7.7 7.7 8.6 8.7 8.9 8.7 8.8 8.7 9.0 8.5 7.5 7.6 7.5 7.9 8.2 8.9 7.4 7.6 7.2 7.0 6.7 6.7 6.8 6.7 6.3 6.2 6.1 6.1 6.0 6.2 6.1 5.9 5.9 5.9 5.8 5.9 5.6 6.0 6.3 5.6 5.6 5.9 5.5 5.5 5.2 5.1 5.6 4.9 5.7
7.9 8.4 8.5 8.6 8.8 8.6 8.6 8.6 8.9 8.7 8.4 8.2 7.9 7.6 8.0 8.2 7.7 7.7 7.5 7.2 7.0 6.8 6.9 6.8 6.4 6.1 6.0 5.9 5.7 5.7 5.8 5.8 5.6 6.0 5.9 5.7 5.6 5.9 6.2 5.9 5.9 5.7 5.7 5.6 5.5 5.1 5.3 5.3 5.8
8.0 8.5 8.4 8.1 8.2 8.4 8.2 8.5 8.5 8.8 8.7 8.3 8.1 7.8 8.2 8.0 8.0 8.1 7.8 7.4 7.1 7.0 6.8 6.6 6.5 6.2 6.1 5.7 5.5 5.6 5.9 6.0 6.0 5.9 5.8 5.6 5.6 5.5 5.9 5.7 5.7 5.8 5.6 5.7 5.7 5.3 5.5 5.5 5.1
8.1 8.6 8.4 8.4 8.2 8.4 8.6 8.1 9.0 8.9 8.9 8.9 8.5 8.2 8.3 7.9 7.7 7.7 7.8 7.5 7.1 7.1 6.8 6.6 6.4 6.2 6.0 6.0 5.7 5.6 5.7 5.9 6.0 5.9 5.9 5.8 5.6 5.5 5.6 5.7 5.7 5.9 5.4 5.7 5.5 5.6 5.3 5.6 5.5
8.5 8.4 8.5 8.4 8.5 8.7 9.0 8.5 9.4 9.1 8.8 9.0 8.8 8.5 8.2 8.4 8.1 7.9 7.9 7.8 7.1 6.9 6.9 6.6 6.4 6.3 6.2 6.1 5.8 5.6 5.7 5.7 6.0 6.3 6.1 6.1 5.9 5.6 5.4 5.6 5.4 6.0 5.8 5.6 5.6 5.6 5.6 5.4 5.5
8.6 8.5 8.5 8.4 8.6 8.2 9.3 8.6 9.0 9.3 9.4 9.0 8.8 8.8 8.3 8.3 8.3 8.0 7.7 7.6 7.4 7.0 6.7 6.5 6.4 6.3 6.1 6.0 6.1 5.9 5.9 5.8 6.1 6.4 6.3 6.0 5.8 5.8 5.6 5.6 5.6 5.7 5.7 5.7 5.6 5.4 5.8 5.6 5.4
8.8 8.6 8.3 7.7 7.3 7.2 8.9 8.6 9.0 9.5 9.6 9.4 9.3 9.1 8.3 8.3 8.4 8.3 8.1 8.0 7.8 7.4 7.0 6.6 6.5 6.4 6.1 6.0 6.0 6.1 6.0 6.0 6.2 6.2 5.9 5.9 5.9 5.8 5.6 5.6 5.6 5.7 5.6 5.7 5.8 5.5 5.9 5.8 5.6
8.8 8.7 8.4 7.9 6.6 7.7 8.9 9.1 9.0 9.4 9.6 9.5 9.0 9.3 8.8 8.5 8.5 8.8 8.5 8.2 8.0 7.5 7.3 6.8 6.6 6.4 6.2 5.9 5.9 5.9 5.9 6.1 6.1 6.2 6.0 6.0 5.9 5.8 5.6 5.7 5.5 5.3 5.5 5.4 5.7 5.4 5.7 5.6 5.7
9.3 9.2 8.9 8.8 8.8 7.8 9.0 9.4 9.4 9.5 9.3 9.4 9.4 9.2 9.3 8.8 8.8 8.8 8.9 8.6 8.1 7.5 7.4 7.0 6.8 6.6 6.3 6.1 6.1 6.2 6.2 6.3 6.1 6.1 6.0 5.9 6.0 6.0 5.8 5.9 5.8 5.3 5.1 5.4 5.6 5.6 5.5 5.7 5.7
9.1 9.2 9.3 9.1 7.7 8.0 9.2 9.3 8.4 9.1 9.2 9.1 9.2 9.4 9.0 9.2 9.3 9.0 8.8 8.9 8.5 7.9 7.5 6.9 6.8 6.7 6.5 6.4 6.4 6.3 6.3 6.2 6.2 6.2 6.0 5.9 5.9 6.1 6.1 6.1 5.7 5.3 4.9 5.3 5.6 5.7 5.6 5.9 5.9
9.0 8.8 9.0 8.8 8.8 7.4 6.3 8.3 8.0 8.3 8.4 8.8 9.0 9.2 9.2 9.0 9.2 9.4 9.2 9.1 8.8 8.3 8.1 7.5 7.1 6.9 6.9 6.6 6.4 6.5 6.5 6.4 6.3 6.3 6.1 5.9 5.9 6.2 6.2 6.2 6.0 5.6 5.6 5.7 5.8 5.8 5.8 6.0 5.7
7.8 7.8 7.8 8.0 8.3 8.4 8.6 7.9 8.3 8.5 8.3 8.4 8.6 8.5 8.5 9.0 9.2 8.8 8.4 8.8 9.2 8.9 8.4 8.0 7.5 7.2 7.1 6.9 6.8 6.6 6.4 6.3 6.4 6.4 6.1 6.1 6.1 6.1 6.1 6.0 6.1 6.2 6.2 6.3 6.3 6.2 6.2 6.1 5.7
Wind_Speed
6 7 2 3 4 4 3 2 5 9 5 1 7 7 6 7 2 2 8 14 17 14 18 19 18 18 18 18 16 15 14 15 17 16 16 15 15 13 13 12 10 8 7 7 7 8 8 7 7
4 4 4 2 5 4 3 2 15 14 8 8 8 5 5 3 7 12 9 18 19 17 18 18 18 18 20 19 17 16 15 14 14 14 14 12 12 11 10 9 7 6 6 6 6 6 6 7 8
5 8 4 4 2 1 5 11 17 15 7 6 4 3 4 7 13 12 14 18 20 15 17 19 19 18 20 20 18 16 14 14 13 13 12 11 10 9 8 6 5 5 5 6 8 6 4 4 5
4 5 4 4 3 4 5 5 17 16 4 10 4 4 3 4 16 11 20 20 15 13 16 20 19 19 19 19 17 16 14 14 14 12 11 11 10 9 6 4 4 5 5 6 6 5 4 2 3
3 3 4 2 4 4 6 7 8 4 6 1 5 3 3 7 17 24 20 18 17 13 15 19 19 18 18 18 17 16 14 13 13 12 11 10 9 8 6 5 5 6 5 7 7 5 4 3 4
4 2 4 0 4 6 8 5 11 5 6 3 5 5 1 18 25 18 18 16 18 16 16 17 18 17 17 17 16 15 14 13 12 11 10 10 8 8 7 6 6 6 5 6 5 4 3 4 3
4 4 1 5 3 6 2 6 5 8 6 1 6 5 2 17 17 19 17 15 14 19 16 16 16 17 17 16 16 16 15 13 12 12 11 10 9 8 8 7 7 7 6 5 4 3 2 3 4
4 3 2 6 7 10 6 7 6 5 3 3 1 5 11 11 18 17 15 12 12 11 11 13 13 14 15 15 16 16 14 13 12 11 11 10 9 9 9 8 8 9 7 6 5 5 4 5 7
4 3 4 5 3 13 15 6 4 7 6 2 4 1 16 19 20 17 13 10 7 6 6 8 8 12 14 14 15 16 14 13 12 11 11 10 8 8 9 10 10 10 9 8 7 4 5 15 18
6 5 10 8 11 12 20 5 6 4 6 3 2 11 20 23 20 19 15 11 10 11 8 9 8 10 12 12 13 15 14 13 11 10 10 10 10 9 8 10 12 11 9 6 6 8 18 18 13
8 5 5 5 14 17 9 6 3 10 3 6 13 19 20 21 17 18 16 18 17 14 11 10 9 12 11 8 11 11 12 13 12 12 14 13 9 9 10 11 12 11 4 1 9 13 12 14 18
5 6 4 4 3 10 13 9 5 8 6 13 13 18 18 20 17 17 15 15 15 13 12 11 9 10 10 9 9 10 8 11 10 13 15 11 7 7 7 8 11 4 4 9 12 8 9 8 5
6 2 0 6 4 8 16 8 5 5 10 10 12 14 22 19 17 16 16 14 15 14 13 13 10 9 10 8 8 8 9 10 14 14 16 13 8 4 8 10 9 5 12 7 8 11 10 10 9
6 6 4 6 7 10 10 4 5 4 7 10 14 13 20 20 20 14 14 15 15 15 14 15 13 10 12 7 8 7 10 13 13 12 14 12 8 5 5 4 4 8 11 11 12 8 3 8 5
9 7 7 6 6 5 11 3 6 8 11 15 12 11 18 21 20 22 21 19 17 13 14 15 14 12 10 9 8 9 11 11 8 11 12 10 8 3 5 3 4 12 10 14 9 8 2 6 10
4 4 3 8 7 6 6 7 7 15 16 14 18 18 15 20 23 19 18 17 17 14 13 14 12 11 8 9 8 8 10 10 8 10 11 9 8 4 5 2 3 6 11 8 5 2 3 3 4
4 5 6 5 7 4 5 7 9 16 14 16 15 9 14 15 18 16 18 18 18 16 15 14 11 11 10 8 8 9 9 8 9 8 9 12 9 5 4 3 3 6 6 3 3 2 3 3 3
4 5 6 1 5 5 4 7 6 18 19 20 15 6 10 15 23 17 19 18 17 15 13 14 11 12 11 7 5 4 4 4 9 9 10 10 9 7 4 4 7 5 1 2 3 5 3 2 2
7 6 6 5 8 6 7 6 6 16 16 16 13 8 12 19 21 18 17 17 17 14 14 15 14 13 10 5 4 3 4 3 3 6 12 14 11 9 6 4 3 5 0 1 3 2 2 3 2
7 5 7 6 7 2 3 7 7 6 15 22 21 15 16 19 17 20 18 18 19 18 17 14 16 14 11 9 5 4 4 3 3 6 9 15 13 10 7 6 3 3 2 3 2 3 2 3 6
7 3 4 6 6 4 4 8 7 10 6 20 23 24 22 24 23 21 22 21 19 19 17 15 16 16 14 12 4 3 3 3 2 2 3 6 13 11 9 8 6 4 3 2 2 1 3 2 1
4 8 5 6 5 3 4 7 6 7 8 10 22 22 23 22 22 23 23 22 22 22 18 16 15 16 14 12 10 8 5 5 4 4 3 4 13 11 12 9 8 5 3 3 2 3 2 2 2
8 5 3 3 5 5 2 3 8 2 10 6 19 25 23 24 25 25 25 23 24 19 18 15 14 14 14 14 13 11 7 5 4 3 7 6 5 9 10 11 9 5 3 3 4 4 4 2 2
1 5 9 6 3 3 6 6 10 4 6 4 9 19 22 22 22 22 22 19 18 17 16 14 14 14 13 15 13 14 11 8 5 4 4 4 4 4 7 10 8 8 5 5 5 3 3 5 2
5 7 4 5 4 6 3 2 10 8 5 8 10 12 17 20 20 20 20 19 16 19 18 14 15 14 14 16 14 13 13 11 10 8 5 5 5 3 7 6 6 4 5 6 5 4 4 3 3
5 8 5 2 2 6 6 3 4 12 8 10 14 9 5 19 19 22 21 19 19 19 18 16 16 15 14 15 14 12 11 8 8 8 6 6 6 7 8 8 6 6 7 7 6 3 4 5 4
4 2 7 4 3 3 4 7 4 13 11 10 8 10 5 17 19 22 20 18 19 18 19 19 17 16 15 16 13 12 11 10 10 9 7 7 5 6 7 7 7 7 6 6 7 4 5 4 3
2 2 4 4 3 3 6 5 3 21 22 20 20 19 19 9 16 17 19 19 16 18 19 18 18 19 17 16 13 11 12 12 10 9 10 7 7 7 7 7 8 7 7 7 7 5 5 5 4
7 5 5 5 4 1 3 3 12 12 14 15 18 20 20 11 14 17 18 17 16 17 16 16 14 15 14 15 14 13 10 10 9 9 9 9 9 8 7 7 7 9 10 7 7 7 7 7 4
7 2 3 4 4 1 4 1 12 13 15 15 16 17 17 21 10 7 7 5 17 17 16 17 15 16 15 15 14 14 12 12 11 10 9 9 10 8 10 8 9 8 8 7 9 8 7 7 7
Wind_Direction
223 230 129 61 59 44 321 104 106 98 66 356 69 102 128 34 256 205 138 136 139 143 154 150 152 151 152 147 146 141 137 132 126 126 122 121 116 113 109 107 105 100 95 106 114 113 115 119 121
279 133 50 82 64 0 309 41 79 99 129 118 87 99 54 93 78 116 116 138 139 143 146 145 146 147 152 150 148 142 146 139 139 134 128 126 122 122 119 115 105 96 96 110 125 116 123 116 114
47 43 72 56 108 255 322 71 113 110 40 17 99 29 86 118 121 138 135 139 135 140 142 148 151 146 148 152 151 144 154 147 150 148 145 141 134 129 126 122 112 110 114 129 127 122 133 125 124
34 22 36 75 277 246 216 76 116 112 56 17 27 61 61 117 149 140 141 139 130 139 143 149 152 151 148 149 151 149 157 152 151 156 154 149 149 144 141 137 130 130 132 124 133 141 149 167 155
55 62 82 142 244 270 355 73 93 67 110 123 333 100 74 118 121 136 143 141 136 140 146 150 155 154 152 155 154 156 160 160 154 156 157 159 159 158 159 158 156 153 160 145 153 157 168 175 215
33 77 74 216 271 284 118 288 88 94 141 148 81 97 20 137 137 146 145 142 143 144 149 155 158 156 156 154 154 156 159 159 156 161 164 168 168 174 167 170 167 166 170 167 170 178 193 204 214
139 103 33 202 242 327 126 158 251 135 166 251 148 110 46 147 143 145 140 141 145 148 147 155 161 160 158 155 160 162 162 162 160 164 162 163 164 169 172 161 174 173 187 190 204 218 241 279 283
129 92 150 304 56 25 342 122 124 112 110 114 37 167 168 152 141 129 128 132 141 148 149 157 160 157 158 159 166 164 165 166 167 161 165 165 170 171 170 170 182 189 199 212 223 246 264 288 296
140 92 187 231 143 169 233 261 140 96 119 192 350 105 145 127 123 123 122 126 133 145 151 150 150 155 163 166 172 166 167 172 168 169 174 170 173 182 183 184 204 203 211 223 236 258 318 9 1
156 185 203 222 153 178 191 213 146 115 171 94 70 121 129 139 138 140 149 150 159 166 180 172 166 169 175 173 170 169 170 170 174 173 182 182 189 200 205 212 210 220 222 255 293 10 41 16 358
174 208 195 320 119 157 164 127 153 158 117 145 153 143 142 147 151 152 164 166 172 177 176 179 173 177 184 170 165 174 172 173 180 190 193 200 198 222 229 224 238 229 240 306 34 68 41 4 357
148 186 168 258 152 158 160 148 162 233 163 154 157 150 147 159 165 162 166 171 166 176 177 177 174 177 190 164 170 181 170 179 189 208 204 200 208 232 233 216 230 205 91 81 97 135 143 145 211
72 172 33 300 349 156 137 191 209 171 151 155 172 166 166 169 171 178 172 172 173 169 168 181 175 180 183 171 175 181 192 185 196 208 206 200 205 207 218 221 214 170 132 155 145 189 171 148 190
312 301 283 288 300 161 159 188 150 234 141 160 177 188 178 173 175 170 173 179 183 177 167 175 177 179 177 184 178 187 191 195 180 191 209 213 194 198 216 235 173 150 144 170 170 239 94 119 166
322 328 319 273 257 193 137 74 233 154 170 148 167 164 180 183 176 182 179 181 182 188 174 174 170 176 176 187 177 178 180 179 187 201 203 209 208 169 118 102 153 156 175 174 186 255 73 113 173
316 329 317 279 207 220 104 268 173 158 155 156 178 169 184 187 186 187 181 175 182 183 181 180 178 168 172 175 168 174 173 177 189 202 212 208 196 189 90 70 14 28 158 165 197 197 324 235 133
355 264 246 285 199 167 140 253 162 161 158 181 195 179 174 183 195 183 181 177 179 181 177 184 179 163 175 174 174 166 172 171 189 188 199 204 199 187 98 127 78 48 123 195 160 243 215 273 138
283 341 309 208 232 200 191 238 146 168 168 194 206 239 178 186 195 184 177 178 176 180 174 181 176 173 172 178 171 151 159 164 177 183 194 196 205 166 143 117 129 77 167 172 224 204 201 268 140
294 285 278 280 297 193 221 246 256 173 186 198 215 215 193 199 195 184 180 176 176 179 175 179 170 182 170 175 160 154 165 166 165 184 195 196 200 174 162 149 116 66 97 259 312 73 146 83 116
278 243 316 295 278 145 238 277 261 226 191 197 196 201 204 194 183 189 182 181 182 183 184 175 180 178 179 179 181 156 156 171 167 172 194 193 198 185 174 163 177 138 97 8 22 51 5 107 172
274 257 280 265 327 330 342 315 294 278 226 195 193 192 188 187 184 185 188 187 184 190 189 183 182 180 180 180 151 88 74 71 128 157 182 200 199 185 180 184 161 180 154 110 156 105 112 77 335
243 264 225 318 45 282 82 295 291 283 291 183 187 190 187 187 187 185 186 188 190 190 190 188 182 179 180 171 175 168 170 170 193 174 178 201 191 197 186 177 161 172 176 141 155 125 109 113 46
226 250 321 334 338 20 331 59 265 71 294 267 181 187 187 186 184 187 190 189 191 188 190 186 183 179 180 181 180 185 186 192 172 160 172 197 204 205 190 188 181 170 181 183 173 164 142 111 133
177 23 19 34 67 357 252 143 289 258 219 220 182 189 188 185 186 188 191 188 188 187 189 186 182 183 178 181 185 189 187 182 169 188 189 192 195 196 206 190 193 193 177 179 198 200 172 160 187
75 56 351 356 6 227 79 97 243 282 311 191 196 196 189 182 180 180 180 186 184 189 190 184 184 185 183 187 189 191 195 186 190 192 190 171 185 188 205 201 192 184 193 182 191 182 194 195 184
203 147 154 240 245 274 334 276 295 334 27 14 28 7 203 179 181 181 180 179 182 186 188 186 185 189 186 191 193 194 194 192 197 196 189 200 200 199 190 203 199 204 195 181 192 186 201 206 225
266 180 191 152 162 36 276 294 358 19 34 18 33 18 275 190 181 183 180 176 182 183 188 189 187 192 191 194 193 195 194 197 202 201 189 204 184 191 191 192 200 194 194 194 189 205 225 215 216
134 233 17 11 341 318 300 308 24 17 11 5 8 23 356 214 186 180 182 183 179 186 191 190 189 189 190 193 196 200 202 203 201 199 208 200 200 191 180 191 197 194 195 190 184 195 214 206 225
11 4 44 110 118 168 325 329 40 26 35 6 13 1 3 330 191 189 183 185 182 184 184 191 191 192 192 195 193 194 199 209 212 204 201 197 202 197 193 184 195 201 204 198 189 197 208 206 215
65 39 60 107 280 187 161 260 12 19 27 15 6 1 358 12 32 72 359 270 183 185 184 182 187 190 192 193 195 198 191 190 198 221 215 193 202 201 202 187 194 199 202 193 196 201 200 197 209